Weather History for Dyersburg, TN

Change the Weather History Date:

Saturday, April 16, 2011

  Actual Average Record
Temperature  
Mean Temperature 50 °F -  
Max Temperature 53 °F 67 °F 86 °F (2013)
Min Temperature 46 °F 50 °F 35 °F (2014)
Degree Days  
Heating Degree Days 16    
Moisture  
Dew Point 35 °F    
Average Humidity 57    
Maximum Humidity 76    
Minimum Humidity 50    
Precipitation  
Precipitation 0.06 in - - ()
Sea Level Pressure  
Sea Level Pressure 29.80 in    
Wind  
Wind Speed 16 mph (West)    
Max Wind Speed 22 mph    
Max Gust Speed 32 mph    
Visibility 10 miles    
Events      
Averages and records for this station are not official NWS values.
T = Trace of Precipitation, MM = Missing Value Source: NWS Daily Summary

Daily Weather History Graph

Daily Weather History Graph

Search for Another Location

Airport:

Trip Planner

Search our weather history database for the weather conditions in past years. The results will help you decide how hot, cold, wet, or windy it might be!

Date:

Astronomy

Apr. 16, 2011 Rise Set
Actual Time 6:23 AM CDT 7:31 PM CDT
Civil Twilight 5:57 AM CDT 7:58 PM CDT
Nautical Twilight 5:25 AM CDT 8:29 PM CDT
Astronomical Twilight 4:53 AM CDT 9:02 PM CDT
Moon 6:15 PM CDT (4/16) 5:03 AM CDT (4/16)
Length of Visible Light 14h 01m
Length of Day
13h 08m
Waxing Gibbous, 97% of the Moon is Illuminated
Apr 16
Waxing Gibbous
Apr 17
Full
Apr 24
Last Quarter
May 3
New
May 10
First Quarter

Hourly Weather History & Observations

Time (CDT) Temp. Windchill Dew Point Humidity Pressure Visibility Wind Dir Wind Speed Gust Speed Precip Events Conditions
12:15 AM 51.8 °F - 37.4 °F 58% 29.65 in 10.0 mi WSW 16.1 mph 29.9 mph N/A   Overcast
12:35 AM 51.8 °F - 37.4 °F 58% 29.64 in 10.0 mi WSW 17.3 mph 25.3 mph N/A   Overcast
12:55 AM 51.8 °F - 37.4 °F 58% 29.64 in 10.0 mi WSW 16.1 mph 23.0 mph N/A   Overcast
1:15 AM 51.8 °F - 37.4 °F 58% 29.64 in 10.0 mi WSW 17.3 mph 26.5 mph N/A   Overcast
1:35 AM 51.8 °F - 37.4 °F 58% 29.63 in 10.0 mi WSW 17.3 mph 25.3 mph N/A   Overcast
1:55 AM 50.0 °F - 39.2 °F 66% 29.63 in 10.0 mi WSW 17.3 mph 23.0 mph N/A   Overcast
2:35 AM 48.2 °F - 39.2 °F 71% 29.62 in 10.0 mi WSW 18.4 mph 24.2 mph 0.02 in   Overcast
2:55 AM 48.2 °F - 39.2 °F 71% 29.63 in 10.0 mi SW 16.1 mph 24.2 mph 0.04 in   Overcast
3:35 AM 48.2 °F - 39.2 °F 71% 29.64 in 10.0 mi SW 13.8 mph 18.4 mph 0.02 in   Overcast
3:55 AM 46.4 °F 39.8 °F 39.2 °F 76% 29.64 in 8.0 mi WSW 16.1 mph 29.9 mph 0.02 in   Mostly Cloudy
4:15 AM 48.2 °F - 37.4 °F 66% 29.65 in 10.0 mi WSW 15.0 mph 20.7 mph N/A   Overcast
4:35 AM 48.2 °F - 37.4 °F 66% 29.65 in 10.0 mi West 13.8 mph 18.4 mph N/A   Overcast
4:55 AM 48.2 °F - 35.6 °F 62% 29.66 in 10.0 mi West 12.7 mph 20.7 mph N/A   Overcast
5:15 AM 48.2 °F - 33.8 °F 58% 29.67 in 10.0 mi West 15.0 mph 23.0 mph N/A   Overcast
5:35 AM 48.2 °F - 32.0 °F 54% 29.67 in 10.0 mi West 12.7 mph 24.2 mph N/A   Overcast
5:55 AM 46.4 °F 40.7 °F 32.0 °F 57% 29.68 in 10.0 mi West 12.7 mph 19.6 mph N/A   Overcast
6:15 AM 46.4 °F 41.1 °F 33.8 °F 62% 29.69 in 10.0 mi West 11.5 mph 20.7 mph N/A   Overcast
6:35 AM 46.4 °F 40.1 °F 30.2 °F 53% 29.70 in 10.0 mi West 15.0 mph 26.5 mph N/A   Overcast
6:55 AM 46.4 °F 40.7 °F 30.2 °F 53% 29.71 in 10.0 mi West 12.7 mph 23.0 mph N/A   Overcast
7:15 AM 46.4 °F 39.2 °F 30.2 °F 53% 29.72 in 10.0 mi West 18.4 mph 24.2 mph N/A   Overcast
7:35 AM 46.4 °F 39.5 °F 30.2 °F 53% 29.74 in 10.0 mi West 17.3 mph 24.2 mph N/A   Overcast
7:55 AM 46.4 °F 40.4 °F 30.2 °F 53% 29.75 in 10.0 mi West 13.8 mph 25.3 mph N/A   Overcast
8:15 AM 46.4 °F 39.8 °F 32.0 °F 57% 29.75 in 10.0 mi West 16.1 mph 20.7 mph N/A   Overcast
8:35 AM 48.2 °F - 32.0 °F 54% 29.76 in 10.0 mi West 12.7 mph 21.9 mph N/A   Overcast
8:55 AM 46.4 °F 39.2 °F 33.8 °F 62% 29.77 in 10.0 mi WSW 18.4 mph 23.0 mph N/A   Overcast
9:15 AM 48.2 °F - 32.0 °F 54% 29.78 in 10.0 mi West 19.6 mph 26.5 mph N/A   Overcast
9:35 AM 48.2 °F - 33.8 °F 58% 29.79 in 10.0 mi West 20.7 mph 27.6 mph N/A   Overcast
9:55 AM 48.2 °F - 33.8 °F 58% 29.80 in 10.0 mi West 12.7 mph 26.5 mph N/A   Overcast
10:15 AM 48.2 °F - 33.8 °F 58% 29.81 in 10.0 mi West 17.3 mph 29.9 mph N/A   Overcast
10:35 AM 48.2 °F - 33.8 °F 58% 29.82 in 10.0 mi West 17.3 mph 25.3 mph N/A   Overcast
10:55 AM 48.2 °F - 33.8 °F 58% 29.83 in 10.0 mi West 19.6 mph 26.5 mph N/A   Overcast
11:15 AM 48.2 °F - 33.8 °F 58% 29.83 in 10.0 mi West 18.4 mph 26.5 mph N/A   Overcast
11:35 AM 50.0 °F - 33.8 °F 54% 29.85 in 10.0 mi West 18.4 mph 29.9 mph N/A   Overcast
11:55 AM 48.2 °F - 33.8 °F 58% 29.86 in 10.0 mi West 18.4 mph 32.2 mph N/A   Overcast
12:15 PM 48.2 °F - 33.8 °F 58% 29.87 in 10.0 mi West 18.4 mph 25.3 mph N/A   Overcast
12:35 PM 48.2 °F - 33.8 °F 58% 29.88 in 10.0 mi West 21.9 mph 28.8 mph N/A   Overcast
12:55 PM 50.0 °F - 33.8 °F 54% 29.89 in 10.0 mi West 18.4 mph 31.1 mph N/A   Overcast
1:15 PM 50.0 °F - 33.8 °F 54% 29.90 in 10.0 mi West 16.1 mph 24.2 mph N/A   Overcast
1:35 PM 50.0 °F - 33.8 °F 54% 29.90 in 10.0 mi West 18.4 mph 25.3 mph N/A   Overcast
1:55 PM 50.0 °F - 33.8 °F 54% 29.91 in 10.0 mi West 12.7 mph 20.7 mph N/A   Overcast
2:15 PM 50.0 °F - 33.8 °F 54% 29.92 in 10.0 mi West 17.3 mph 27.6 mph N/A   Overcast
2:35 PM 48.2 °F - 33.8 °F 58% 29.93 in 10.0 mi West 17.3 mph 26.5 mph N/A   Overcast
2:55 PM 50.0 °F - 35.6 °F 58% 29.93 in 10.0 mi West 17.3 mph 24.2 mph N/A   Overcast
3:15 PM 50.0 °F - 33.8 °F 54% 29.93 in 10.0 mi West 18.4 mph 21.9 mph N/A   Overcast
3:35 PM 51.8 °F - 35.6 °F 54% 29.93 in 10.0 mi West 18.4 mph 24.2 mph N/A   Overcast
3:55 PM 51.8 °F - 33.8 °F 50% 29.94 in 10.0 mi West 16.1 mph 23.0 mph N/A   Overcast
4:15 PM 51.8 °F - 35.6 °F 54% 29.94 in 10.0 mi West 15.0 mph 23.0 mph N/A   Overcast
4:55 PM 51.8 °F - 35.6 °F 54% 29.95 in 10.0 mi West 11.5 mph 17.3 mph N/A   Overcast
5:15 PM 51.8 °F - 35.6 °F 54% 29.96 in 10.0 mi West 15.0 mph 19.6 mph N/A   Overcast
5:35 PM 53.6 °F - 35.6 °F 51% 29.96 in 10.0 mi West 9.2 mph 19.6 mph N/A   Overcast
5:55 PM 53.6 °F - 37.4 °F 54% 29.97 in 10.0 mi West 13.8 mph - N/A   Mostly Cloudy
6:15 PM 53.6 °F - 35.6 °F 51% 29.98 in 10.0 mi West 10.4 mph - N/A   Mostly Cloudy
6:35 PM 53.6 °F - 35.6 °F 51% 29.99 in 10.0 mi West 8.1 mph 18.4 mph N/A   Scattered Clouds
6:55 PM 53.6 °F - 35.6 °F 51% 29.99 in 10.0 mi West 10.4 mph 16.1 mph N/A   Clear
7:15 PM 51.8 °F - 35.6 °F 54% 29.99 in 10.0 mi West 6.9 mph - N/A   Clear
7:35 PM 48.2 °F - 35.6 °F 62% 30.00 in 10.0 mi WSW 4.6 mph - N/A   Clear
7:55 PM 48.2 °F - 35.6 °F 62% 30.01 in 10.0 mi WSW 4.6 mph - N/A   Clear
8:15 PM 46.4 °F 44.3 °F 35.6 °F 66% 30.01 in 10.0 mi WSW 4.6 mph - N/A   Clear
8:35 PM 46.4 °F 44.3 °F 35.6 °F 66% 30.02 in 10.0 mi WSW 4.6 mph - N/A   Clear
8:55 PM 46.4 °F 45.2 °F 35.6 °F 66% 30.03 in 10.0 mi SW 3.5 mph - N/A   Clear
9:15 PM 44.6 °F 43.1 °F 35.6 °F 71% 30.03 in 10.0 mi South 3.5 mph - N/A   Clear
9:35 PM 42.8 °F - 33.8 °F 70% 30.03 in 10.0 mi Calm Calm - N/A   Clear
9:55 PM 44.6 °F - 35.6 °F 71% 30.04 in 10.0 mi Calm Calm - N/A   Clear
10:15 PM 42.8 °F 41.1 °F 33.8 °F 70% 30.04 in 10.0 mi South 3.5 mph - N/A   Clear
10:35 PM 42.8 °F 41.1 °F 33.8 °F 70% 30.04 in 10.0 mi South 3.5 mph - N/A   Clear
11:15 PM 44.6 °F 42.2 °F 35.6 °F 71% 30.04 in 10.0 mi South 4.6 mph - N/A   Clear
11:35 PM 44.6 °F 43.1 °F 35.6 °F 71% 30.05 in 10.0 mi South 3.5 mph - N/A   Clear
11:55 PM 42.8 °F 41.1 °F 35.6 °F 76% 30.04 in 10.0 mi South 3.5 mph - N/A   Clear